Terminal Aerodrome Forecast
Issued by NWS

Home | Current Version | Previous Version | Text Only | Print | Product List | Glossary On
Versions: 1 2 3 4 5 6 7 8 9 10 11 12 13 14 15 16 17 18 19 20 21 22 23 24 25 26 27 28 29
156
FTUS41 KOKX 111209 RRA
TAFGON
TAF
KGON 111209Z 1112/1212 34004KT P6SM SCT200
     FM111500 27007KT P6SM SCT150
     FM111800 23008KT P6SM BKN100
     FM112000 23007KT P6SM SCT050 OVC070
     FM112200 21006KT 6SM -SN OVC040
     FM120000 21006KT 4SM -SN OVC025
     FM120300 19007KT 4SM -SN OVC015
     FM120800 13011KT 4SM -RA BR OVC015
     FM121000 16013KT 2SM RA BR OVC008=

USA.gov is the U.S. government's official web portal to all federal, state and local government web resources and services.